Wind_Speed
6 6 5 4 3 1 1 2 3 4 4 5 6 7 7 8 8 8 7 7 7 8 8 8 8 7 8 8 9 9 9 8 8 8 8 8 7 7 5 5 4 4 4 4 4 4 3 3 3
7 6 6 5 3 2 1 1 3 4 5 5 6 6 7 8 8 7 7 7 7 8 8 7 7 7 7 8 8 9 9 8 8 8 8 8 8 7 6 5 4 4 4 4 4 4 4 4 4
8 7 6 5 4 2 1 2 3 4 4 5 6 7 8 8 8 7 7 8 8 7 7 7 7 7 7 7 8 8 8 8 8 7 7 7 7 7 6 5 4 4 5 5 4 4 4 4 5
9 8 7 6 5 3 2 2 4 4 5 6 6 7 8 8 8 8 8 8 7 7 6 7 7 7 7 7 7 8 8 8 8 7 7 7 7 8 8 6 5 4 5 5 5 5 4 5 5
11 9 8 6 6 4 3 4 4 4 5 6 6 7 7 7 7 8 8 8 8 6 6 6 7 7 6 7 7 8 8 8 8 8 7 7 7 8 8 7 6 5 6 6 5 5 5 6 5
12 11 9 7 6 6 5 5 5 4 4 6 6 6 7 7 7 7 8 8 8 7 6 7 7 7 7 7 7 8 8 8 8 8 8 7 8 8 8 8 7 6 6 6 6 5 6 6 6
14 12 10 9 7 6 6 5 5 5 5 6 6 6 7 7 7 7 7 7 7 6 6 6 7 7 7 7 8 8 9 9 9 8 8 8 8 8 8 8 7 6 6 6 6 6 5 5 5
15 13 11 10 8 7 7 6 6 5 6 6 6 7 7 7 7 6 6 6 6 6 7 7 7 7 7 7 7 8 8 9 9 9 9 8 8 8 8 8 8 7 7 7 6 6 5 5 5
16 14 13 12 10 9 8 8 7 6 6 6 6 7 8 8 7 6 6 6 6 7 7 7 7 7 7 7 8 8 9 9 10 10 9 9 9 9 9 8 9 8 7 7 7 6 6 6 6
17 15 14 13 12 12 10 9 9 7 7 7 6 7 8 8 7 6 6 6 6 7 8 7 7 7 7 8 8 9 9 10 10 10 9 9 9 9 8 8 9 8 8 8 8 7 7 7 7
18 16 15 14 13 12 11 11 9 8 8 7 7 7 7 7 7 6 6 6 6 7 8 8 8 8 8 8 9 9 10 10 10 10 10 9 9 9 8 8 8 9 8 8 8 7 7 8 7
19 18 17 15 15 13 13 11 10 9 8 7 7 7 7 7 6 7 7 7 7 8 8 9 9 9 9 9 10 10 10 11 11 10 10 10 9 9 8 9 9 9 9 9 9 8 9 8 8
20 18 17 16 16 15 14 13 10 9 7 7 7 7 7 8 8 8 8 8 8 8 8 8 9 9 10 10 10 11 11 12 11 11 11 10 10 9 9 9 9 9 9 9 9 9 10 10 9
21 19 18 16 16 16 15 14 11 9 8 7 7 7 8 8 9 9 9 9 9 9 9 9 10 9 10 11 11 11 12 12 11 11 11 11 10 10 10 10 10 10 10 10 10 10 10 10 10
21 19 17 16 16 16 15 14 12 11 10 9 8 7 8 8 9 9 9 9 9 10 10 11 11 10 10 11 11 11 12 11 11 11 12 12 11 11 11 11 10 10 10 10 10 11 10 11 11
21 20 18 16 16 16 16 14 13 12 11 11 9 8 8 9 10 9 9 9 10 10 11 11 11 11 11 11 11 12 12 12 11 12 13 13 13 12 12 12 12 11 11 11 11 11 11 12 12
21 20 19 18 18 18 16 14 13 13 13 12 11 10 10 11 11 10 10 10 11 11 11 11 11 11 12 12 12 13 13 12 12 13 13 13 13 12 12 13 13 12 12 12 12 12 13 13 13
21 21 20 20 20 19 18 16 14 15 15 13 12 12 12 11 11 11 11 10 11 11 11 12 12 11 12 13 13 13 13 14 14 13 13 13 14 13 12 13 13 13 13 13 13 14 14 15 15
22 22 21 20 20 20 19 17 16 16 16 15 14 13 13 12 12 12 12 12 11 12 12 12 13 12 12 13 13 14 14 15 15 14 14 14 15 14 13 13 14 14 14 15 15 15 15 15 15
22 22 21 20 20 20 20 18 17 16 16 15 15 14 14 13 13 13 13 13 13 13 13 13 14 14 13 14 14 14 14 15 15 15 14 14 15 15 15 15 15 16 16 15 15 15 15 16 16
23 22 21 21 21 21 21 19 18 17 16 16 15 15 15 15 14 14 14 13 14 14 14 15 14 14 14 14 14 15 14 15 15 15 14 14 15 15 15 16 16 16 16 16 16 16 16 16 16
22 21 21 22 22 22 22 21 18 18 17 17 17 17 17 16 15 15 15 15 14 14 15 15 15 15 15 15 15 15 15 15 15 15 15 15 15 15 16 16 16 16 17 17 17 17 17 17 17
21 22 22 23 23 23 23 23 19 19 19 18 18 17 17 17 16 16 16 15 15 15 15 16 16 16 16 16 15 14 15 15 16 16 15 16 16 16 16 17 17 17 18 17 17 18 18 18 18
23 23 24 24 24 25 23 23 20 20 20 19 19 18 18 17 17 17 17 16 16 16 16 17 17 17 16 16 16 15 16 17 17 16 16 16 17 17 17 17 18 18 18 18 19 19 19 19 19
24 24 25 25 25 25 23 24 22 21 20 20 19 19 19 18 17 18 18 18 18 17 17 17 18 18 17 17 17 16 17 18 18 17 17 16 17 17 18 18 19 20 19 19 19 19 19 19 19
25 25 26 26 25 24 24 25 22 21 20 20 20 20 20 19 19 19 18 19 19 18 18 18 18 18 18 19 18 17 19 19 18 18 18 18 18 18 18 19 20 20 20 20 19 19 19 19 19
26 26 25 26 27 26 26 25 23 21 20 19 19 19 20 20 20 20 20 20 21 20 19 19 19 19 19 19 19 19 19 18 17 17 18 18 18 18 18 19 20 19 19 19 19 19 18 18 18
26 25 25 26 26 26 27 26 23 21 21 20 19 19 20 20 21 21 22 23 23 22 21 20 18 18 18 19 20 20 19 18 18 18 19 19 19 19 19 18 18 19 19 19 18 19 18 18 18
26 26 26 27 27 27 28 26 23 21 21 21 21 21 21 21 21 22 23 24 24 23 22 20 19 19 19 19 19 19 18 19 19 20 20 20 20 21 19 19 18 18 18 18 17 17 17 17 17
29 28 28 28 28 28 28 27 23 22 22 22 22 22 22 23 23 23 23 24 23 22 21 21 20 20 20 20 19 18 19 20 20 21 21 21 20 20 19 18 17 17 17 17 17 17 17 17 17
Wind_Direction
205 205 206 206 203 196 325 27 43 31 32 31 34 35 32 31 23 19 19 21 14 11 10 13 15 17 19 20 18 17 15 12 8 4 359 0 360 356 351 349 346 345 339 334 331 336 319 308 298
208 211 212 210 210 217 270 3 35 23 25 30 30 29 24 21 15 10 11 13 6 1 2 6 12 13 13 14 15 14 11 8 3 359 357 356 357 355 347 344 341 341 334 331 331 333 322 309 294
217 220 221 221 225 232 262 323 356 18 19 22 19 16 9 6 1 0 3 358 354 353 357 358 3 6 9 12 11 10 8 5 360 356 354 353 352 350 345 334 332 334 330 326 322 318 315 307 299
223 231 232 233 239 249 260 305 325 356 3 5 2 0 358 355 351 352 352 349 346 352 359 356 356 1 5 5 6 4 2 1 358 353 350 347 345 344 339 330 324 323 323 320 317 312 313 308 305
227 233 237 238 243 252 261 284 307 321 351 353 352 352 352 349 344 344 345 343 343 351 354 354 352 356 357 357 358 0 359 357 354 348 345 342 339 337 336 328 319 320 317 315 313 308 309 307 308
230 235 240 246 244 250 258 277 307 322 336 340 339 349 349 349 345 340 343 343 347 352 350 351 351 355 355 351 351 353 353 351 350 346 342 339 336 333 331 327 316 313 315 311 306 302 300 303 303
231 235 239 245 246 250 262 271 290 301 314 329 328 335 344 343 342 340 341 342 345 350 351 348 349 348 346 347 348 350 351 348 346 344 340 335 331 329 327 325 320 312 307 303 300 298 296 294 293
234 236 236 242 242 244 253 262 274 285 299 315 324 333 337 342 343 339 340 343 344 347 348 349 350 347 343 342 343 344 345 343 341 338 337 332 328 326 323 322 321 313 309 305 299 293 288 285 288
234 235 237 240 240 243 249 267 272 277 291 302 320 333 336 336 340 340 340 346 347 346 347 348 349 346 344 343 340 339 339 337 335 334 333 330 327 322 318 315 315 311 308 305 300 293 286 284 283
233 235 237 241 242 247 251 264 271 269 287 298 308 325 330 329 331 336 341 346 346 348 347 343 339 337 338 339 336 334 334 333 331 331 330 328 323 315 309 308 304 306 305 304 302 294 283 279 272
233 235 238 241 243 247 252 259 265 267 281 292 299 313 321 327 329 330 336 341 341 343 339 333 328 324 322 327 332 328 329 329 327 327 330 329 324 315 306 300 299 302 300 296 295 295 284 273 271
232 235 236 238 241 244 251 257 264 272 279 288 296 310 315 318 322 323 324 325 328 333 334 333 325 322 322 325 328 326 323 324 324 323 323 326 321 317 309 299 297 296 293 289 285 285 282 276 271
230 232 235 236 240 245 249 253 261 272 282 287 298 306 306 308 312 312 316 317 320 326 328 328 323 320 320 321 322 322 324 320 320 321 322 323 318 312 307 301 296 295 296 292 285 280 279 272 267
230 230 235 236 240 246 248 250 257 269 275 282 291 299 300 305 309 310 316 314 316 321 322 318 314 312 314 315 318 319 320 316 315 318 320 322 319 310 301 298 297 293 292 289 287 282 277 270 264
232 230 233 234 237 243 244 245 253 260 265 275 283 291 299 302 307 310 313 313 315 316 315 314 308 306 307 308 310 313 315 309 310 313 317 319 317 310 303 296 297 295 291 286 283 278 276 271 268
232 235 233 235 240 243 242 241 250 258 262 267 272 281 291 298 303 304 307 309 312 312 311 310 304 300 302 302 302 306 308 306 308 309 310 313 315 309 304 298 295 293 289 284 280 277 274 274 272
236 236 233 234 240 240 245 246 250 258 263 268 271 277 287 294 299 299 299 302 304 308 308 308 305 298 297 297 298 301 304 306 306 305 305 306 311 309 305 301 297 291 287 284 280 278 275 275 272
236 235 232 232 238 241 247 251 252 256 262 266 269 274 283 288 291 291 294 296 300 303 306 308 306 300 296 296 298 298 301 302 302 301 301 302 304 304 302 300 296 293 289 287 282 278 273 272 272
235 235 234 235 239 243 249 251 252 256 262 263 266 272 279 286 287 287 290 291 295 297 300 305 304 297 296 297 299 298 297 299 298 295 297 299 302 302 298 298 297 295 292 288 282 278 273 270 269
234 235 235 235 241 245 250 252 252 255 259 262 267 272 276 282 282 284 286 289 292 291 293 299 302 298 297 296 297 295 296 300 297 295 295 298 305 303 304 300 297 295 293 288 283 279 275 269 266
235 237 238 240 242 245 249 248 249 253 258 261 264 270 272 275 276 279 281 287 288 288 289 292 298 300 298 296 294 294 298 298 297 296 295 297 300 304 302 301 296 293 291 287 284 281 277 272 268
235 238 239 238 241 244 249 250 248 254 258 262 265 267 271 272 273 275 279 282 284 286 285 286 291 294 300 299 297 296 298 301 300 299 296 296 298 300 302 300 297 293 290 287 284 280 277 273 271
235 236 239 239 242 245 250 255 251 255 257 260 264 267 271 271 270 272 275 278 282 286 287 287 286 290 293 296 300 298 302 303 301 299 292 291 292 295 297 295 296 294 291 288 284 280 276 273 272
237 237 240 241 243 247 250 256 257 256 258 259 263 267 269 268 267 268 271 274 279 284 286 286 287 290 291 293 300 302 303 303 302 301 294 291 289 291 291 290 293 293 290 289 285 280 277 274 273
239 240 241 243 245 249 252 256 258 259 261 262 263 265 265 266 266 266 269 274 280 282 283 283 286 289 289 292 299 299 300 301 301 300 298 292 290 291 289 290 291 291 289 287 285 281 277 274 273
241 244 247 249 251 253 254 256 259 260 263 263 262 264 264 264 267 269 271 276 279 280 282 284 286 290 292 294 296 296 299 299 300 301 301 293 289 289 286 288 291 289 287 285 284 281 278 274 273
240 242 245 250 253 255 255 258 258 258 261 259 260 263 266 266 268 271 273 277 279 280 282 284 285 288 293 294 295 295 298 297 299 301 301 295 290 290 290 291 290 289 287 286 285 283 279 275 272
241 245 246 248 253 257 258 260 260 258 259 259 261 265 267 269 270 273 275 277 280 280 281 282 283 287 291 291 292 292 293 293 296 298 300 297 291 289 290 292 291 290 287 287 286 285 283 279 275
242 244 247 249 253 257 262 263 262 262 262 262 263 267 268 270 275 276 276 277 280 281 281 279 279 282 287 292 292 291 290 291 295 298 298 295 291 288 288 290 291 291 287 286 287 286 285 280 275
244 246 249 251 255 258 262 264 266 267 264 263 265 267 269 272 274 274 276 276 278 279 279 277 278 281 284 289 291 289 290 291 295 298 298 298 293 287 287 290 290 289 287 285 284 285 286 282 276
Height
5884 5885 5886 5887 5888 5888 5887 5887 5887 5886 5886 5886 5886 5885 5885 5886 5886 5888 5885 5883 5883 5883 5882 5881 5880 5880 5879 5878 5877 5877 5877 5876 5876 5875 5875 5875 5874 5874 5874 5874 5874 5873 5873 5873 5873 5873 5872 5872 5872
5884 5885 5887 5887 5887 5887 5888 5887 5887 5887 5887 5887 5886 5886 5886 5885 5885 5885 5884 5884 5883 5883 5882 5881 5880 5879 5879 5878 5877 5877 5877 5876 5876 5875 5875 5875 5874 5874 5874 5873 5873 5873 5873 5873 5873 5872 5872 5872 5872
5884 5885 5887 5887 5887 5888 5888 5887 5887 5887 5887 5887 5886 5886 5886 5886 5885 5884 5884 5884 5883 5883 5882 5881 5880 5879 5878 5878 5877 5877 5876 5876 5876 5875 5874 5874 5874 5874 5873 5873 5873 5873 5872 5872 5872 5872 5872 5871 5871
5884 5885 5886 5887 5887 5888 5888 5887 5887 5887 5887 5887 5887 5886 5886 5886 5885 5884 5884 5883 5883 5882 5882 5881 5880 5879 5878 5878 5877 5877 5876 5876 5875 5875 5874 5874 5874 5873 5873 5872 5872 5872 5872 5872 5871 5871 5871 5871 5870
5883 5884 5885 5886 5887 5887 5887 5887 5887 5887 5887 5887 5887 5886 5886 5885 5885 5884 5884 5883 5883 5882 5881 5881 5880 5879 5878 5878 5877 5877 5876 5875 5875 5874 5874 5873 5873 5872 5872 5872 5871 5871 5871 5871 5871 5870 5870 5870 5869
5882 5883 5885 5885 5886 5887 5886 5886 5887 5887 5887 5887 5887 5886 5886 5885 5884 5884 5883 5883 5883 5882 5881 5880 5879 5879 5878 5877 5877 5876 5875 5875 5874 5873 5873 5872 5872 5871 5871 5871 5870 5870 5870 5870 5869 5869 5869 5869 5869
5882 5882 5883 5885 5886 5886 5886 5886 5886 5886 5886 5886 5886 5886 5885 5885 5884 5883 5883 5883 5882 5881 5880 5880 5879 5878 5878 5877 5876 5876 5875 5874 5873 5872 5872 5871 5871 5870 5870 5869 5869 5869 5869 5868 5868 5868 5868 5868 5868
5880 5882 5882 5883 5884 5885 5885 5885 5885 5886 5886 5886 5885 5885 5884 5884 5884 5883 5882 5882 5881 5881 5880 5879 5878 5878 5877 5876 5876 5875 5874 5874 5872 5871 5871 5870 5870 5869 5868 5868 5867 5867 5867 5867 5867 5867 5867 5867 5867
5878 5881 5881 5882 5883 5884 5884 5884 5884 5885 5885 5885 5884 5884 5884 5883 5883 5882 5882 5881 5881 5880 5879 5879 5878 5877 5877 5876 5875 5875 5874 5873 5872 5870 5869 5869 5868 5868 5867 5866 5866 5866 5866 5865 5865 5865 5865 5865 5865
5876 5878 5880 5881 5882 5882 5882 5883 5883 5883 5884 5884 5884 5883 5883 5882 5882 5882 5881 5881 5880 5880 5879 5878 5877 5877 5876 5875 5874 5874 5873 5872 5871 5869 5868 5867 5867 5866 5865 5865 5865 5864 5864 5864 5864 5863 5864 5864 5864
5874 5876 5877 5878 5879 5880 5881 5881 5882 5882 5883 5883 5883 5883 5882 5882 5881 5881 5881 5880 5880 5879 5878 5877 5876 5876 5875 5874 5873 5872 5871 5870 5869 5868 5867 5866 5865 5864 5864 5863 5863 5863 5862 5862 5862 5862 5862 5863 5863
5871 5873 5875 5876 5877 5878 5879 5880 5880 5881 5882 5882 5882 5881 5881 5881 5880 5880 5879 5879 5879 5878 5877 5876 5875 5874 5873 5872 5872 5871 5870 5869 5868 5867 5866 5864 5863 5862 5862 5862 5861 5861 5861 5861 5861 5861 5861 5861 5861
5869 5871 5872 5874 5875 5876 5878 5878 5879 5880 5880 5880 5880 5880 5880 5879 5879 5879 5878 5877 5877 5876 5875 5874 5874 5873 5872 5871 5870 5869 5868 5867 5866 5865 5864 5863 5862 5861 5860 5860 5859 5859 5859 5859 5859 5859 5859 5859 5859
5866 5868 5870 5872 5873 5874 5875 5877 5878 5878 5878 5878 5878 5878 5878 5878 5877 5877 5876 5876 5875 5874 5873 5872 5872 5871 5870 5870 5869 5868 5866 5865 5864 5863 5862 5861 5860 5859 5858 5858 5857 5857 5857 5857 5857 5857 5856 5857 5857
5863 5866 5868 5869 5870 5871 5873 5875 5876 5876 5876 5876 5876 5877 5876 5876 5876 5875 5875 5874 5873 5872 5871 5870 5870 5869 5868 5868 5867 5866 5865 5863 5862 5861 5860 5859 5858 5857 5856 5856 5855 5855 5854 5854 5854 5854 5854 5854 5854
5860 5863 5865 5867 5868 5869 5871 5873 5873 5873 5873 5874 5874 5875 5875 5874 5874 5874 5873 5873 5871 5870 5869 5868 5868 5867 5866 5866 5865 5864 5863 5862 5860 5859 5858 5857 5856 5855 5854 5853 5853 5852 5852 5852 5851 5851 5851 5852 5851
5857 5860 5862 5864 5865 5866 5868 5869 5871 5870 5871 5871 5872 5872 5873 5873 5872 5872 5871 5870 5869 5869 5868 5866 5865 5865 5864 5863 5863 5862 5861 5860 5859 5857 5856 5855 5854 5853 5852 5851 5850 5849 5849 5849 5848 5848 5848 5848 5848
5854 5856 5859 5861 5862 5863 5864 5866 5867 5867 5867 5869 5869 5870 5870 5870 5870 5870 5869 5868 5867 5866 5865 5864 5863 5862 5862 5861 5860 5859 5858 5857 5856 5855 5854 5853 5852 5851 5850 5849 5847 5846 5846 5845 5845 5844 5844 5845 5845
5850 5853 5856 5858 5859 5860 5861 5862 5864 5864 5865 5866 5866 5867 5867 5868 5867 5867 5867 5866 5865 5864 5863 5862 5861 5860 5859 5858 5858 5857 5856 5854 5853 5852 5851 5850 5849 5847 5846 5845 5844 5843 5842 5841 5841 5840 5840 5840 5840
5846 5849 5852 5855 5855 5856 5857 5859 5861 5862 5862 5863 5864 5864 5865 5865 5864 5864 5864 5863 5862 5862 5860 5860 5858 5857 5857 5855 5854 5853 5852 5851 5850 5849 5848 5847 5846 5845 5843 5842 5841 5840 5838 5837 5837 5836 5836 5836 5836
5843 5846 5848 5850 5851 5852 5854 5856 5858 5858 5859 5860 5860 5861 5861 5861 5861 5860 5860 5860 5860 5859 5858 5857 5856 5855 5854 5852 5851 5850 5849 5848 5847 5845 5844 5844 5843 5842 5840 5838 5837 5836 5835 5834 5833 5832 5832 5831 5831
5840 5842 5844 5845 5847 5848 5850 5851 5854 5855 5856 5856 5857 5857 5857 5857 5857 5857 5857 5857 5856 5856 5854 5854 5853 5852 5850 5849 5848 5847 5846 5845 5843 5842 5841 5840 5839 5838 5836 5835 5833 5832 5830 5829 5828 5828 5827 5826 5826
5836 5838 5839 5841 5842 5844 5845 5846 5851 5851 5852 5853 5853 5853 5853 5853 5853 5853 5853 5853 5853 5852 5851 5850 5849 5848 5847 5846 5845 5844 5842 5841 5840 5838 5837 5836 5835 5834 5832 5831 5829 5828 5826 5825 5824 5823 5822 5822 5821
5831 5833 5835 5836 5837 5839 5842 5842 5845 5847 5848 5848 5849 5849 5848 5849 5849 5849 5849 5849 5849 5848 5847 5846 5845 5845 5844 5843 5841 5840 5838 5837 5836 5834 5833 5832 5831 5830 5828 5827 5825 5824 5822 5820 5819 5818 5817 5816 5816
5827 5829 5830 5831 5833 5835 5838 5838 5840 5842 5843 5843 5844 5844 5844 5844 5844 5845 5845 5844 5844 5844 5843 5842 5841 5840 5840 5839 5838 5836 5835 5834 5832 5830 5829 5828 5827 5825 5824 5822 5821 5819 5817 5815 5814 5812 5811 5810 5810
5823 5825 5827 5828 5829 5831 5832 5833 5836 5837 5838 5838 5839 5839 5839 5839 5840 5840 5840 5840 5839 5839 5838 5837 5836 5836 5835 5834 5833 5832 5831 5830 5828 5826 5825 5823 5821 5820 5818 5817 5815 5813 5812 5810 5808 5806 5805 5804 5804
5817 5819 5821 5822 5823 5824 5826 5828 5830 5832 5832 5833 5834 5834 5834 5835 5835 5835 5835 5834 5834 5834 5833 5832 5832 5831 5830 5829 5829 5828 5827 5825 5824 5822 5820 5818 5817 5815 5814 5812 5809 5807 5806 5804 5802 5800 5799 5798 5798
5813 5814 5816 5817 5817 5818 5820 5822 5825 5827 5828 5829 5829 5829 5830 5830 5830 5829 5829 5829 5829 5828 5828 5827 5827 5826 5826 5825 5824 5823 5822 5820 5819 5817 5815 5813 5812 5810 5808 5806 5803 5801 5800 5799 5797 5795 5793 5793 5793
5807 5809 5810 5812 5813 5814 5814 5819 5820 5822 5823 5824 5824 5824 5824 5824 5824 5824 5824 5823 5823 5822 5821 5821 5821 5821 5821 5820 5819 5818 5817 5815 5814 5812 5810 5808 5806 5804 5802 5801 5798 5796 5795 5794 5792 5790 5789 5788 5788
5801 5803 5805 5807 5808 5808 5809 5814 5815 5816 5816 5817 5818 5818 5818 5819 5819 5819 5818 5817 5817 5816 5816 5816 5816 5816 5815 5815 5814 5813 5812 5810 5809 5806 5804 5802 5799 5798 5796 5795 5793 5792 5790 5789 5787 5786 5785 5783 5783